SCP
0 0 0 0 0 0 0 0 0 0 0 0 0 0 0 0 0 0 0 0 0 0 0 0 0 0 0 0 0 0 0 0 0 0 0 0 0 0 0 0 0 0 0 0 0
0 0 0 0 0 0 0 0 0 0 0 0 0 0 0 0 0 0 0 0 0 0 0 0 0 0 0 0 0 0 0 0 0 0 0 0 0 0 0 0 0 0 0 0 0
0 0 0 0 0 0 0 0 0 0 0 0 0 0 0 0 0 0 0 0 0 0 0 0 0 0 0 0 0 0 0 0 0 0 0 0 0 0 0 0 0 0 0 0 0
0 0 0 0 0 0 0 0 0 0 0 0 0 0 0 0 0 0 0 0 0 0 0 0 0 0 0 0 0 0 0 0 0 0 0 0 0 0 0 0 0 0 0 0 0
0 0 0 0 0 0 0 0 0 0 0 0 0 0 0 0 0 0 0 0 0 0 0 0 0 0 0 0 0 0 0 0 0 0 0 0 0 0 0 0 0 0 0 0 0
0 0 0 0 0 0 0 0 0 0 0 0 0 0 0 0 0 0 0 0 0 0 0 0 0 0 0 0 0 0 0 0 0 0 0 0 0 0 0 0 0 0 0 0 0
0 0 0 0 0 0 0 0 0 0 0 0 0 0 0 0 0 0 0 0 0 0 0 0 0 0 0 0 0 0 0 0 0 0 0 0 0 0 0 0 0 0 0 0 0
0 0 0 0 0 0 0 0 0 0 0 0 0 0 0 0 0 0 0 0 0 0 0 0 0 0 0 0 0 0 0 0 0 0 0 0 0 0 0 0 0 0 0 0 0
0 0 0 0 0 0 0 0 0 0 0 0 0 0 0 0 0 0 0 0 0 0 0 0 0 0 0 0 0 0 0 0 0 0 0 0 0 0 0 0 0 0 0 0 0
0 0 0 0 0 0 0 0 0 0 0 0 0 0 0 0 0 0 0 0 0 0 0 0 0 0 0 0 0 0 0 0 0 0 0 0 0 0 0 0 0 0 0 0 0
0 0 0 0 0 0 0 0 0 0 0 0 0 0 0 0 0 0 0 0 0 0 0 0 0 0 0 0 0 0 0 0 0 0 0 0 0 0 0 0 0 0 0 0 0
0 0 0 0 0 0 0 0 0 0 0 0 0 0 0 0 0 0 0 0 0 0 0 0 0 0 0 0 0 0 0 0 0 0 0 0 0 0 0 0 0 0 0 0 0
0 0 0 0 0 0 0 0 0 0 0 0 0 0 0 0 0 0 0 0 0 0 0 0 0 0 0 0 0 0 0 0 0 0 0 0 0 0 0 0 0 0 0 0 0
0 0 0 0 0 0 0 0 0 0 0 0 0 0 0 0 0 0 0 0 0 0 0 0 0 0 0 0 0 0 0 0 0 0 0 0 0 0 0 0 0 0 0 0 0
0 0 0 0 0 0 0 0 0 0 0 0 0 0 0 0 0 0 0 0 0 0 0 0 0 0 0 0 0 0 0 0 0 0 0 0 0 0 0 0 0 0 0 0 0
0 0 0 0 0 0 0 0 0 0 0 0 0 0 0 0 0 0 0 0 0 0 0 0 0 0 0 0 0 0 0 0 0 0 0 0 0 0 0 0 0 0 0 0 0
0 0 0 0 0 0 0 0 0 0 0 0 0 0 0 0 0 0 0 0 0 0 0 0 0 0 0 0 0 0 0 0 0 0 0 0 0 0 0 0 0 0 0 0 0
0 0 0 0 0 0 0 0 0 0 0 0 0 0 0 0 0 0 0 0 0 0 0 0 0 0 0 0 0 0 0 0 0 0 0 0 0 0 0 0 0 0 0 0 0
0 0 0 0 0 0 0 0 0 0 0 0 0 0 0 0 0 0 0 0 0 0 0 0 0 0 0 0 0 0 0 0 0 0 0 0 0 0 0 0 0 0 0 0 0
0 0 0 0 0 0 0 0 0 0 0 0 0 0 0 0 0 0 0 0 0 0 0 0 0 0 0 0 0 0 0 0 0 0 0 0 0 0 0 0 0 0 0 0 0
0 0 0 0 0 0 0 0 0 0 0 0 0 0 0 0 0 0 0 0 0 0 0 0 0 0 0 0 0 0 0 0 0 0 0 0 0 0 0 0 0 0 0 0 0
0 0 0 0 0 0 0 0 0 0 0 0 0 0 0 0 0 0 0 0 0 0 0 0 0 0 0 0 0 0 0 0 0 0 0 0 0 0 0 0 0 0 0 0 0
0 0 0 0 0 0 0 0 0 0 0 0 0 0 0 0 0 0 0 0 0 0 0 0 0 0 0 0 0 0 0 0 0 0 0 0 0 0 0 0 0 0 0 0 0
0 0 0 0 0 0 0 0 0 0 0 0 0 0 0 0 0 0 0 0 0 0 0 0 0 0 0 0 0 0 0 0 0 0 0 0 0 0 0 0 0 0 0 0 0
0 0 0 0 0 0 0 0 0 0 0 0 0 0 0 0 0 0 0 0 0 0 0 0 0 0 0 0 0 0 0 0 0 0 0 0 0 0 0 0 0 0 0 0 0
0 0 0 0 0 0 0 0 0 0 0 0 0 0 0 0 0 0 0 0 0 0 0 0 0 0 0 0 0 0 0 0 0 0 0 0 0 0 0 0 0 0 0 0 0
0 0 0 0 0 0 0 0 0 0 0 0 0 0 0 0 0 0 0 0 0 0 0 0 0 0 0 0 0 0 0 0 0 0 0 0 0 0 0 0 0 0 0 0 0
Wind_Speed_500mb
11 11 10 10 10 10 11 11 12 14 15 16 17 18 20 23 25 28 31 13 11 13 9 9 8 4 2 3 3 3 8 2 8 8 6 10 10 7 19 11 9 18 17 21 30
15 14 14 14 14 14 14 14 15 17 17 18 20 21 24 26 29 30 12 7 8 7 8 10 9 5 4 4 4 7 7 16 10 6 6 11 5 16 11 28 7 20 30 26 19
18 18 18 17 17 17 17 18 18 19 20 21 22 22 23 26 30 5 5 3 6 12 16 15 7 2 1 4 7 8 10 9 10 19 11 7 7 5 7 13 39 35 40 26 27
22 22 21 21 21 21 21 22 23 23 23 23 23 24 22 19 8 5 7 5 5 10 15 15 8 4 3 5 8 3 17 13 7 8 8 8 8 9 19 46 50 40 33 17 14
27 27 27 26 26 25 25 26 26 26 25 24 23 22 22 15 21 22 22 19 18 18 20 17 15 10 6 6 4 6 8 16 25 31 25 25 29 17 49 50 28 9 18 13 13
32 31 30 31 30 28 26 25 26 25 25 25 25 24 22 17 22 22 23 21 21 22 26 21 10 16 6 6 7 2 10 22 26 43 25 13 11 6 12 6 13 10 10 12 13
35 33 31 32 31 30 28 28 28 27 27 27 26 25 28 41 26 21 24 21 19 21 23 24 22 13 7 3 6 6 11 15 20 17 9 6 3 13 16 19 14 11 11 7 12
32 36 33 33 35 33 30 30 30 27 27 27 25 24 22 28 31 33 33 29 23 23 21 20 16 14 7 2 7 5 5 7 6 4 1 9 15 12 17 25 15 6 5 6 8
33 33 34 33 33 34 31 29 29 29 28 27 24 18 19 24 25 31 26 21 21 22 21 16 15 8 6 9 8 7 7 10 16 5 4 6 12 17 33 39 13 14 14 16 17
35 33 32 33 33 34 29 28 27 30 30 27 27 11 31 17 16 20 24 22 16 19 14 13 9 6 5 7 10 11 9 9 10 3 6 7 15 21 40 29 7 23 24 24 25
34 33 33 30 29 29 26 24 21 13 29 24 11 15 8 24 18 19 23 28 17 14 10 7 7 16 24 21 6 5 8 9 8 9 1 13 11 13 28 23 28 29 32 36 40
35 32 33 33 30 29 27 17 16 10 20 34 49 50 41 18 14 27 29 24 15 11 13 6 13 23 8 9 12 9 7 12 9 11 7 13 17 7 23 17 21 29 34 40 45
43 38 36 35 35 34 32 33 21 15 13 20 46 40 55 50 29 32 40 19 10 13 15 16 12 11 14 11 13 10 12 8 15 6 5 5 13 6 12 27 31 30 33 38 45
52 49 46 40 38 38 40 25 24 11 8 12 12 12 23 22 13 34 44 23 8 20 12 13 14 12 10 14 15 9 14 13 7 6 7 2 8 2 9 11 17 25 33 37 41
53 52 55 50 26 29 29 31 23 10 11 2 6 10 22 23 17 7 32 13 13 15 13 14 10 10 13 11 11 13 8 10 7 6 4 5 1 9 13 9 8 17 28 32 36
53 51 48 49 50 42 30 28 28 7 23 7 9 8 8 5 5 9 10 7 6 7 3 10 3 9 13 5 14 7 8 12 9 6 1 15 13 7 9 8 13 20 28 31 34
57 52 61 63 64 52 34 35 7 13 3 10 9 11 7 10 6 9 11 11 11 9 11 2 8 4 7 10 6 7 10 4 7 3 10 6 6 11 6 8 28 37 40 35 32
62 62 67 72 62 55 50 11 16 11 15 8 9 9 15 16 10 11 13 11 13 5 7 12 6 17 9 11 12 10 12 10 12 6 7 3 11 7 2 10 46 54 46 37 32
63 70 66 71 72 73 50 20 17 12 11 20 7 8 10 10 11 9 15 12 16 22 12 11 9 3 6 7 13 9 8 9 11 5 5 8 5 3 9 10 30 43 41 37 31
55 53 61 56 56 79 27 34 12 10 9 8 22 13 18 14 15 16 18 8 10 21 7 10 3 3 3 7 7 9 13 7 4 3 9 8 10 9 13 19 19 26 44 39 32
51 26 30 57 45 38 21 18 18 24 17 14 17 11 10 12 14 12 9 1 6 8 11 8 6 3 5 12 17 6 5 6 9 9 10 3 11 8 22 30 31 36 47 43 36
60 12 23 42 26 9 19 11 17 19 30 5 6 7 16 11 5 9 12 4 2 9 13 3 5 8 15 2 4 3 13 13 9 10 6 5 18 9 16 39 42 47 46 39 34
22 27 39 67 16 22 9 9 14 13 19 17 17 9 7 11 10 12 15 5 10 9 13 11 3 2 11 1 1 8 6 5 9 7 14 9 8 8 16 25 44 41 37 36 35
12 3 5 21 8 22 16 10 16 15 18 15 12 13 11 19 21 15 17 7 9 11 15 17 10 14 17 5 5 8 9 9 10 9 10 29 9 6 9 16 29 23 21 33 36
13 4 8 6 8 10 19 14 25 16 7 26 7 24 32 13 18 15 8 6 3 8 10 10 13 10 3 2 1 3 10 20 17 17 18 20 18 16 21 17 24 23 26 32 36
14 9 8 5 2 10 13 9 23 10 15 8 9 29 19 15 12 11 11 9 10 4 13 9 7 6 5 7 9 7 17 10 9 9 13 6 31 14 12 14 14 26 34 41 38
22 18 7 11 5 7 6 12 18 11 3 3 10 7 18 14 13 12 16 17 13 16 14 12 12 7 10 4 5 13 15 30 16 11 20 23 22 13 8 23 38 42 43 41 31
Wind_Direction_500mb
255 258 260 263 269 278 284 289 293 298 302 305 308 310 311 312 310 309 313 289 248 242 247 209 189 188 181 118 80 101 63 214 243 184 252 333 9 298 320 261 263 274 264 290 302
253 254 258 262 268 271 275 281 285 290 296 301 305 309 310 312 311 306 289 278 243 216 179 171 168 150 133 138 154 98 120 220 217 193 226 295 257 312 313 304 288 301 321 302 281
255 258 260 262 265 268 273 275 278 284 289 293 296 299 303 312 318 270 197 116 135 155 155 162 167 215 219 197 203 166 198 215 253 249 269 273 271 222 282 298 301 321 320 317 296
257 260 263 266 271 275 278 280 282 283 285 288 290 293 296 304 295 221 202 199 200 193 184 195 218 184 190 225 208 219 251 229 268 254 281 259 286 265 234 273 303 317 311 336 28
261 264 266 268 270 273 276 279 281 283 285 288 289 289 291 276 257 259 247 247 248 239 220 221 216 200 190 211 209 225 278 278 276 279 277 275 265 262 279 291 304 7 43 34 355
265 266 268 270 270 271 272 274 278 281 283 285 286 284 278 254 262 253 251 249 244 237 225 224 235 220 217 226 184 274 278 280 286 281 275 236 265 176 283 6 359 328 9 3 338
265 262 265 268 268 270 272 272 274 278 281 282 282 280 267 260 265 254 250 245 235 231 226 229 217 201 173 259 275 306 320 324 269 280 222 175 276 225 277 305 355 351 353 347 349
263 267 263 263 268 268 268 272 274 276 278 279 279 276 257 263 256 253 244 244 237 230 227 227 219 225 217 222 4 5 36 341 282 188 244 148 263 278 304 329 0 22 137 114 72
262 262 266 266 264 266 268 270 274 275 275 277 276 255 262 256 250 242 236 231 224 219 216 212 196 200 148 101 3 2 239 212 312 269 168 153 261 276 301 323 357 128 111 105 99
269 268 266 263 264 266 267 270 273 273 269 269 251 264 240 237 230 227 218 209 193 191 172 180 169 99 54 111 223 207 222 245 235 229 31 302 263 282 311 340 161 121 111 100 88
265 268 269 265 261 262 265 275 276 258 232 217 223 215 262 223 215 208 198 180 172 171 159 168 125 207 202 200 175 165 192 225 257 267 226 240 248 292 341 37 107 112 107 97 87
258 264 264 262 256 253 254 245 239 281 293 252 248 249 245 230 207 202 189 183 179 180 119 72 222 232 131 179 215 236 252 259 284 273 175 280 285 72 41 39 89 105 102 100 98
256 257 262 257 252 248 248 242 251 283 264 260 244 242 238 232 229 207 196 196 172 162 192 183 215 181 177 184 190 204 200 205 230 321 296 304 292 172 70 70 87 96 106 105 99
255 253 248 244 248 243 242 243 237 260 280 249 217 216 197 187 229 211 204 197 191 194 182 233 241 184 184 212 155 215 201 214 200 140 231 55 272 214 125 86 68 102 107 106 104
248 252 245 233 228 222 227 221 200 180 278 138 150 156 158 171 138 179 189 183 171 177 142 234 186 183 203 187 157 230 150 170 155 145 69 285 115 258 130 146 139 125 125 119 113
242 245 245 225 223 229 212 185 166 151 239 209 129 148 125 181 141 118 158 149 156 148 228 228 197 185 209 126 162 131 98 48 48 97 263 231 182 254 191 168 151 159 147 136 126
239 237 237 234 228 215 200 171 177 214 109 193 179 161 167 169 184 158 158 173 160 141 216 245 221 214 188 93 71 109 84 323 340 356 230 97 129 251 312 288 178 164 162 152 139
239 240 237 235 233 223 199 186 212 218 201 124 137 115 177 158 209 177 139 186 234 194 129 165 247 164 186 185 171 179 158 163 217 204 248 284 236 254 40 78 143 159 159 158 154
241 239 233 230 230 222 198 219 210 179 193 145 108 145 218 213 160 148 194 198 203 185 186 160 267 181 162 150 141 184 181 173 110 47 57 238 295 174 96 87 135 158 168 170 167
230 230 237 236 243 215 207 216 221 211 145 156 181 171 185 195 163 179 180 196 205 191 215 201 171 227 169 106 51 165 161 89 17 195 261 278 274 229 193 186 183 184 185 179 176
227 223 234 239 237 212 225 222 207 203 191 168 193 145 163 169 182 194 193 182 189 130 157 144 140 224 119 208 178 138 182 76 127 147 180 256 255 210 199 185 185 196 192 189 189
223 223 225 214 190 212 225 175 194 174 203 193 111 122 173 147 137 183 171 192 153 140 136 151 139 188 198 227 279 271 190 158 158 232 247 155 254 336 179 175 181 194 198 200 203
208 209 188 185 212 211 181 229 213 166 187 164 172 165 152 157 172 199 212 170 186 162 150 163 173 174 334 71 278 220 196 126 94 70 202 179 262 31 121 153 184 191 205 206 211
202 175 230 217 261 206 196 209 211 220 196 159 156 136 152 197 200 199 191 157 171 157 136 99 180 200 222 172 121 172 193 188 155 190 196 230 210 226 171 168 178 200 211 214 213
197 224 181 206 241 221 179 172 206 213 250 169 157 182 191 181 179 178 160 109 74 140 137 147 215 202 221 231 20 269 207 188 200 214 198 239 228 184 194 185 209 239 222 202 188
178 159 183 281 80 217 208 205 220 195 170 225 187 190 185 172 174 174 130 160 191 142 154 176 199 138 155 21 42 271 233 223 236 223 263 282 265 149 191 183 182 187 185 174 170
221 195 170 172 182 138 207 192 209 175 287 341 236 127 188 216 142 130 162 157 138 154 168 162 141 116 230 353 122 289 208 201 203 196 203 219 237 156 174 180 184 179 179 176 181
Wind_Speed_850mb
11 11 10 10 10 10 11 11 12 14 15 16 17 18 20 23 25 28 31 13 11 13 9 9 8 4 2 3 3 3 8 2 8 8 6 10 10 7 19 11 9 18 17 21 30
15 14 14 14 14 14 14 14 15 17 17 18 20 21 24 26 29 30 12 7 8 7 8 10 9 5 4 4 4 7 7 16 10 6 6 11 5 16 11 28 7 20 30 26 19
18 18 18 17 17 17 17 18 18 19 20 21 22 22 23 26 30 5 5 3 6 12 16 15 7 2 1 4 7 8 10 9 10 19 11 7 7 5 7 13 39 35 40 26 27
22 22 21 21 21 21 21 22 23 23 23 23 23 24 22 19 8 5 7 5 5 10 15 15 8 4 3 5 8 3 17 13 7 8 8 8 8 9 19 46 50 40 33 17 14
27 27 27 26 26 25 25 26 26 26 25 24 23 22 22 15 21 22 22 19 18 18 20 17 15 10 6 6 4 6 8 16 25 31 25 25 29 17 49 50 28 9 18 13 13
32 31 30 31 30 28 26 25 26 25 25 25 25 24 22 17 22 22 23 21 21 22 26 21 10 16 6 6 7 2 10 22 26 43 25 13 11 6 12 6 13 10 10 12 13
35 33 31 32 31 30 28 28 28 27 27 27 26 25 28 41 26 21 24 21 19 21 23 24 22 13 7 3 6 6 11 15 20 17 9 6 3 13 16 19 14 11 11 7 12
32 36 33 33 35 33 30 30 30 27 27 27 25 24 22 28 31 33 33 29 23 23 21 20 16 14 7 2 7 5 5 7 6 4 1 9 15 12 17 25 15 6 5 6 8
33 33 34 33 33 34 31 29 29 29 28 27 24 18 19 24 25 31 26 21 21 22 21 16 15 8 6 9 8 7 7 10 16 5 4 6 12 17 33 39 13 14 14 16 17
35 33 32 33 33 34 29 28 27 30 30 27 27 11 31 17 16 20 24 22 16 19 14 13 9 6 5 7 10 11 9 9 10 3 6 7 15 21 40 29 7 23 24 24 25
34 33 33 30 29 29 26 24 21 13 29 24 11 15 8 24 18 19 23 28 17 14 10 7 7 16 24 21 6 5 8 9 8 9 1 13 11 13 28 23 28 29 32 36 40
35 32 33 33 30 29 27 17 16 10 20 34 49 50 41 18 14 27 29 24 15 11 13 6 13 23 8 9 12 9 7 12 9 11 7 13 17 7 23 17 21 29 34 40 45
43 38 36 35 35 34 32 33 21 15 13 20 46 40 55 50 29 32 40 19 10 13 15 16 12 11 14 11 13 10 12 8 15 6 5 5 13 6 12 27 31 30 33 38 45
52 49 46 40 38 38 40 25 24 11 8 12 12 12 23 22 13 34 44 23 8 20 12 13 14 12 10 14 15 9 14 13 7 6 7 2 8 2 9 11 17 25 33 37 41
53 52 55 50 26 29 29 31 23 10 11 2 6 10 22 23 17 7 32 13 13 15 13 14 10 10 13 11 11 13 8 10 7 6 4 5 1 9 13 9 8 17 28 32 36
53 51 48 49 50 42 30 28 28 7 23 7 9 8 8 5 5 9 10 7 6 7 3 10 3 9 13 5 14 7 8 12 9 6 1 15 13 7 9 8 13 20 28 31 34
57 52 61 63 64 52 34 35 7 13 3 10 9 11 7 10 6 9 11 11 11 9 11 2 8 4 7 10 6 7 10 4 7 3 10 6 6 11 6 8 28 37 40 35 32
62 62 67 72 62 55 50 11 16 11 15 8 9 9 15 16 10 11 13 11 13 5 7 12 6 17 9 11 12 10 12 10 12 6 7 3 11 7 2 10 46 54 46 37 32
63 70 66 71 72 73 50 20 17 12 11 20 7 8 10 10 11 9 15 12 16 22 12 11 9 3 6 7 13 9 8 9 11 5 5 8 5 3 9 10 30 43 41 37 31
55 53 61 56 56 79 27 34 12 10 9 8 22 13 18 14 15 16 18 8 10 21 7 10 3 3 3 7 7 9 13 7 4 3 9 8 10 9 13 19 19 26 44 39 32
51 26 30 57 45 38 21 18 18 24 17 14 17 11 10 12 14 12 9 1 6 8 11 8 6 3 5 12 17 6 5 6 9 9 10 3 11 8 22 30 31 36 47 43 36
60 12 23 42 26 9 19 11 17 19 30 5 6 7 16 11 5 9 12 4 2 9 13 3 5 8 15 2 4 3 13 13 9 10 6 5 18 9 16 39 42 47 46 39 34
22 27 39 67 16 22 9 9 14 13 19 17 17 9 7 11 10 12 15 5 10 9 13 11 3 2 11 1 1 8 6 5 9 7 14 9 8 8 16 25 44 41 37 36 35
12 3 5 21 8 22 16 10 16 15 18 15 12 13 11 19 21 15 17 7 9 11 15 17 10 14 17 5 5 8 9 9 10 9 10 29 9 6 9 16 29 23 21 33 36
13 4 8 6 8 10 19 14 25 16 7 26 7 24 32 13 18 15 8 6 3 8 10 10 13 10 3 2 1 3 10 20 17 17 18 20 18 16 21 17 24 23 26 32 36
14 9 8 5 2 10 13 9 23 10 15 8 9 29 19 15 12 11 11 9 10 4 13 9 7 6 5 7 9 7 17 10 9 9 13 6 31 14 12 14 14 26 34 41 38
22 18 7 11 5 7 6 12 18 11 3 3 10 7 18 14 13 12 16 17 13 16 14 12 12 7 10 4 5 13 15 30 16 11 20 23 22 13 8 23 38 42 43 41 31
Wind_Direction_850mb
255 258 260 263 269 278 284 289 293 298 302 305 308 310 311 312 310 309 313 289 248 242 247 209 189 188 181 118 80 101 63 214 243 184 252 333 9 298 320 261 263 274 264 290 302
253 254 258 262 268 271 275 281 285 290 296 301 305 309 310 312 311 306 289 278 243 216 179 171 168 150 133 138 154 98 120 220 217 193 226 295 257 312 313 304 288 301 321 302 281
255 258 260 262 265 268 273 275 278 284 289 293 296 299 303 312 318 270 197 116 135 155 155 162 167 215 219 197 203 166 198 215 253 249 269 273 271 222 282 298 301 321 320 317 296
257 260 263 266 271 275 278 280 282 283 285 288 290 293 296 304 295 221 202 199 200 193 184 195 218 184 190 225 208 219 251 229 268 254 281 259 286 265 234 273 303 317 311 336 28
261 264 266 268 270 273 276 279 281 283 285 288 289 289 291 276 257 259 247 247 248 239 220 221 216 200 190 211 209 225 278 278 276 279 277 275 265 262 279 291 304 7 43 34 355
265 266 268 270 270 271 272 274 278 281 283 285 286 284 278 254 262 253 251 249 244 237 225 224 235 220 217 226 184 274 278 280 286 281 275 236 265 176 283 6 359 328 9 3 338
265 262 265 268 268 270 272 272 274 278 281 282 282 280 267 260 265 254 250 245 235 231 226 229 217 201 173 259 275 306 320 324 269 280 222 175 276 225 277 305 355 351 353 347 349
263 267 263 263 268 268 268 272 274 276 278 279 279 276 257 263 256 253 244 244 237 230 227 227 219 225 217 222 4 5 36 341 282 188 244 148 263 278 304 329 0 22 137 114 72
262 262 266 266 264 266 268 270 274 275 275 277 276 255 262 256 250 242 236 231 224 219 216 212 196 200 148 101 3 2 239 212 312 269 168 153 261 276 301 323 357 128 111 105 99
269 268 266 263 264 266 267 270 273 273 269 269 251 264 240 237 230 227 218 209 193 191 172 180 169 99 54 111 223 207 222 245 235 229 31 302 263 282 311 340 161 121 111 100 88
265 268 269 265 261 262 265 275 276 258 232 217 223 215 262 223 215 208 198 180 172 171 159 168 125 207 202 200 175 165 192 225 257 267 226 240 248 292 341 37 107 112 107 97 87
258 264 264 262 256 253 254 245 239 281 293 252 248 249 245 230 207 202 189 183 179 180 119 72 222 232 131 179 215 236 252 259 284 273 175 280 285 72 41 39 89 105 102 100 98
256 257 262 257 252 248 248 242 251 283 264 260 244 242 238 232 229 207 196 196 172 162 192 183 215 181 177 184 190 204 200 205 230 321 296 304 292 172 70 70 87 96 106 105 99
255 253 248 244 248 243 242 243 237 260 280 249 217 216 197 187 229 211 204 197 191 194 182 233 241 184 184 212 155 215 201 214 200 140 231 55 272 214 125 86 68 102 107 106 104
248 252 245 233 228 222 227 221 200 180 278 138 150 156 158 171 138 179 189 183 171 177 142 234 186 183 203 187 157 230 150 170 155 145 69 285 115 258 130 146 139 125 125 119 113
242 245 245 225 223 229 212 185 166 151 239 209 129 148 125 181 141 118 158 149 156 148 228 228 197 185 209 126 162 131 98 48 48 97 263 231 182 254 191 168 151 159 147 136 126
239 237 237 234 228 215 200 171 177 214 109 193 179 161 167 169 184 158 158 173 160 141 216 245 221 214 188 93 71 109 84 323 340 356 230 97 129 251 312 288 178 164 162 152 139
239 240 237 235 233 223 199 186 212 218 201 124 137 115 177 158 209 177 139 186 234 194 129 165 247 164 186 185 171 179 158 163 217 204 248 284 236 254 40 78 143 159 159 158 154
241 239 233 230 230 222 198 219 210 179 193 145 108 145 218 213 160 148 194 198 203 185 186 160 267 181 162 150 141 184 181 173 110 47 57 238 295 174 96 87 135 158 168 170 167
230 230 237 236 243 215 207 216 221 211 145 156 181 171 185 195 163 179 180 196 205 191 215 201 171 227 169 106 51 165 161 89 17 195 261 278 274 229 193 186 183 184 185 179 176
227 223 234 239 237 212 225 222 207 203 191 168 193 145 163 169 182 194 193 182 189 130 157 144 140 224 119 208 178 138 182 76 127 147 180 256 255 210 199 185 185 196 192 189 189
223 223 225 214 190 212 225 175 194 174 203 193 111 122 173 147 137 183 171 192 153 140 136 151 139 188 198 227 279 271 190 158 158 232 247 155 254 336 179 175 181 194 198 200 203
208 209 188 185 212 211 181 229 213 166 187 164 172 165 152 157 172 199 212 170 186 162 150 163 173 174 334 71 278 220 196 126 94 70 202 179 262 31 121 153 184 191 205 206 211
202 175 230 217 261 206 196 209 211 220 196 159 156 136 152 197 200 199 191 157 171 157 136 99 180 200 222 172 121 172 193 188 155 190 196 230 210 226 171 168 178 200 211 214 213
197 224 181 206 241 221 179 172 206 213 250 169 157 182 191 181 179 178 160 109 74 140 137 147 215 202 221 231 20 269 207 188 200 214 198 239 228 184 194 185 209 239 222 202 188
178 159 183 281 80 217 208 205 220 195 170 225 187 190 185 172 174 174 130 160 191 142 154 176 199 138 155 21 42 271 233 223 236 223 263 282 265 149 191 183 182 187 185 174 170
221 195 170 172 182 138 207 192 209 175 287 341 236 127 188 216 142 130 162 157 138 154 168 162 141 116 230 353 122 289 208 201 203 196 203 219 237 156 174 180 184 179 179 176 181